TimeCST,TemperatureF,Dew PointF,Humidity,Sea Level PressureIn,VisibilityMPH,Wind Direction,Wind SpeedMPH,Gust SpeedMPH,PrecipitationIn,Events,Conditions,WindDirDegrees,DateUTC
12:15 AM,32.0,25.3,76,30.03,10.0,SSW,16.1,-,N/A,,Clear,210,2012-12-31 06:15:00
12:35 AM,32.2,25.2,75,30.02,10.0,SSW,16.1,-,N/A,,Clear,210,2012-12-31 06:35:00
12:55 AM,32.2,24.8,74,30.02,10.0,SW,16.1,-,N/A,,Clear,220,2012-12-31 06:55:00
1:15 AM,32.5,24.8,73,30.02,10.0,SW,18.4,-,N/A,,Clear,220,2012-12-31 07:15:00
1:35 AM,32.9,24.8,72,30.01,10.0,SW,17.3,-,N/A,,Clear,220,2012-12-31 07:35:00
1:55 AM,32.0,24.4,74,30.01,10.0,SSW,15.0,-,N/A,,Clear,210,2012-12-31 07:55:00
2:15 AM,32.0,24.1,73,30.01,10.0,SW,15.0,-,N/A,,Clear,220,2012-12-31 08:15:00
2:35 AM,32.2,24.3,73,30.02,10.0,SW,17.3,-,N/A,,Clear,220,2012-12-31 08:35:00
2:55 AM,33.1,23.9,69,30.02,10.0,SW,17.3,28.8,N/A,,Clear,230,2012-12-31 08:55:00
3:15 AM,33.3,23.9,69,30.02,10.0,WSW,17.3,26.5,N/A,,Scattered Clouds,240,2012-12-31 09:15:00
3:35 AM,33.3,24.3,70,30.02,10.0,SW,17.3,-,N/A,,Scattered Clouds,230,2012-12-31 09:35:00
3:55 AM,32.9,24.6,72,30.02,10.0,WSW,19.6,25.3,N/A,,Scattered Clouds,240,2012-12-31 09:55:00
4:15 AM,33.3,24.8,71,30.02,10.0,WSW,19.6,24.2,N/A,,Mostly Cloudy,240,2012-12-31 10:15:00
4:35 AM,33.1,25.2,73,30.01,10.0,WSW,18.4,-,N/A,,Mostly Cloudy,240,2012-12-31 10:35:00
4:55 AM,32.9,25.5,74,30.02,10.0,WSW,16.1,-,N/A,,Mostly Cloudy,240,2012-12-31 10:55:00
5:15 AM,32.7,25.7,75,30.00,10.0,WSW,15.0,-,N/A,,Overcast,240,2012-12-31 11:15:00
5:35 AM,32.0,25.7,78,30.00,10.0,WSW,13.8,-,N/A,,Overcast,240,2012-12-31 11:35:00
5:55 AM,32.0,25.7,78,30.01,10.0,WSW,13.8,-,N/A,,Overcast,250,2012-12-31 11:55:00
6:15 AM,31.6,25.7,79,30.01,10.0,WSW,10.4,-,N/A,,Overcast,250,2012-12-31 12:15:00
6:35 AM,31.1,26.1,82,30.02,10.0,WSW,9.2,-,N/A,,Overcast,250,2012-12-31 12:35:00
6:55 AM,31.1,26.2,82,30.02,10.0,West,9.2,-,N/A,,Overcast,260,2012-12-31 12:55:00
7:15 AM,31.1,26.2,82,30.02,10.0,West,13.8,17.3,N/A,,Overcast,270,2012-12-31 13:15:00
7:35 AM,31.1,25.7,80,30.03,10.0,West,12.7,18.4,N/A,,Mostly Cloudy,270,2012-12-31 13:35:00
7:55 AM,30.6,25.5,82,30.03,10.0,West,10.4,-,N/A,,Mostly Cloudy,270,2012-12-31 13:55:00
8:15 AM,30.2,25.5,83,30.04,10.0,West,11.5,-,N/A,,Scattered Clouds,270,2012-12-31 14:15:00
8:35 AM,30.0,25.3,83,30.04,10.0,West,12.7,-,N/A,,Scattered Clouds,270,2012-12-31 14:35:00
8:55 AM,29.8,24.6,81,30.05,10.0,West,11.5,-,N/A,,Clear,280,2012-12-31 14:55:00
9:15 AM,29.7,24.6,81,30.04,10.0,West,9.2,-,N/A,,Clear,280,2012-12-31 15:15:00
9:35 AM,29.3,23.0,77,30.05,10.0,WNW,11.5,-,N/A,,Clear,290,2012-12-31 15:35:00
9:55 AM,29.1,23.0,78,30.05,10.0,West,12.7,-,N/A,,Clear,280,2012-12-31 15:55:00
10:15 AM,28.9,22.8,78,30.06,10.0,WNW,11.5,-,N/A,,Scattered Clouds,290,2012-12-31 16:15:00
10:35 AM,28.8,22.5,77,30.06,10.0,WNW,9.2,-,N/A,,Scattered Clouds,300,2012-12-31 16:35:00
10:55 AM,28.6,23.0,80,30.06,10.0,West,11.5,-,N/A,,Clear,260,2012-12-31 16:55:00
11:15 AM,28.2,22.6,80,30.06,10.0,West,11.5,-,N/A,,Clear,280,2012-12-31 17:15:00
11:35 AM,28.0,22.6,80,30.05,10.0,West,10.4,-,N/A,,Clear,270,2012-12-31 17:35:00
11:55 AM,27.5,22.1,80,30.06,10.0,West,11.5,-,N/A,,Clear,270,2012-12-31 17:55:00
12:15 PM,27.3,22.1,81,30.05,10.0,West,12.7,-,N/A,,Clear,270,2012-12-31 18:15:00
12:35 PM,26.2,21.2,81,30.05,10.0,West,15.0,-,N/A,,Clear,270,2012-12-31 18:35:00
12:55 PM,25.7,20.7,81,30.05,10.0,West,12.7,-,N/A,,Clear,280,2012-12-31 18:55:00
1:15 PM,25.7,20.3,80,30.05,10.0,West,13.8,-,N/A,,Clear,270,2012-12-31 19:15:00
1:35 PM,25.5,19.9,79,30.05,10.0,WNW,13.8,-,N/A,,Clear,290,2012-12-31 19:35:00
1:55 PM,25.3,19.9,80,30.06,10.0,WNW,11.5,-,N/A,,Clear,290,2012-12-31 19:55:00
2:15 PM,25.0,19.6,80,30.04,10.0,WNW,10.4,-,N/A,,Scattered Clouds,300,2012-12-31 20:15:00
2:35 PM,24.6,19.4,81,30.04,10.0,WNW,11.5,-,N/A,,Clear,290,2012-12-31 20:35:00
2:55 PM,24.6,19.6,81,30.05,10.0,West,11.5,-,N/A,,Clear,280,2012-12-31 20:55:00
3:15 PM,24.4,18.5,78,30.06,10.0,NW,10.4,-,N/A,,Mostly Cloudy,320,2012-12-31 21:15:00
3:35 PM,23.9,18.5,80,30.05,10.0,WNW,9.2,-,N/A,,Mostly Cloudy,300,2012-12-31 21:35:00
3:55 PM,23.5,18.1,80,30.06,10.0,NW,11.5,-,N/A,,Mostly Cloudy,310,2012-12-31 21:55:00
4:15 PM,22.8,17.8,81,30.06,10.0,NNW,11.5,-,N/A,,Overcast,330,2012-12-31 22:15:00
4:35 PM,22.1,17.4,82,30.07,10.0,NW,8.1,-,N/A,,Overcast,320,2012-12-31 22:35:00
5:15 PM,20.8,16.9,85,30.07,10.0,NNW,9.2,-,N/A,,Overcast,330,2012-12-31 23:15:00
5:35 PM,20.5,16.7,85,30.08,10.0,NW,6.9,-,N/A,,Overcast,310,2012-12-31 23:35:00
6:15 PM,20.1,16.7,87,30.09,7.0,NW,5.8,-,N/A,,Overcast,320,2013-01-01 00:15:00
6:35 PM,20.7,17.2,87,30.10,7.0,NW,5.8,-,N/A,,Overcast,310,2013-01-01 00:35:00
6:55 PM,21.0,17.4,86,30.10,7.0,NW,6.9,-,N/A,,Overcast,320,2013-01-01 00:55:00
7:15 PM,20.8,17.1,85,30.09,7.0,NW,8.1,-,N/A,,Overcast,320,2013-01-01 01:15:00
7:35 PM,21.0,17.1,85,30.10,7.0,NW,9.2,-,N/A,,Overcast,320,2013-01-01 01:35:00
7:55 PM,20.8,16.5,83,30.11,7.0,NW,9.2,-,N/A,,Overcast,320,2013-01-01 01:55:00
8:15 PM,20.7,16.5,84,30.11,7.0,NW,9.2,-,N/A,,Overcast,320,2013-01-01 02:15:00
8:35 PM,20.7,16.5,84,30.10,10.0,NNW,10.4,-,N/A,,Overcast,340,2013-01-01 02:35:00
8:55 PM,20.8,16.2,82,30.11,10.0,North,10.4,-,N/A,,Overcast,350,2013-01-01 02:55:00
9:15 PM,20.5,15.6,81,30.12,10.0,NNW,11.5,-,N/A,,Overcast,340,2013-01-01 03:15:00
9:35 PM,20.3,15.6,82,30.12,10.0,North,12.7,-,N/A,,Overcast,350,2013-01-01 03:35:00
9:55 PM,20.3,15.6,82,30.12,10.0,North,11.5,-,N/A,,Overcast,350,2013-01-01 03:55:00
10:15 PM,20.1,14.9,80,30.14,10.0,North,11.5,-,N/A,,Overcast,350,2013-01-01 04:15:00
10:35 PM,19.9,13.5,76,30.14,10.0,North,12.7,-,N/A,,Overcast,360,2013-01-01 04:35:00
10:55 PM,19.4,12.7,75,30.16,10.0,North,10.4,-,N/A,,Overcast,360,2013-01-01 04:55:00
11:15 PM,19.4,13.5,78,30.15,10.0,North,8.1,-,N/A,,Overcast,360,2013-01-01 05:15:00
11:35 PM,19.0,12.4,75,30.14,10.0,North,10.4,-,N/A,,Overcast,350,2013-01-01 05:35:00